Notices

What's New in latest Release from April 7th, 2021:

- Updated Glossary, including Speed of Maximum Gust, and Total Hourly Precipitation

- Updated national and regional climate services offices contacts and prices information

- Addition of station inventory lists for 1981-2010, 1971-2000, and 1961-1990 Normals.

If you haven't already, please take our survey and provide feedback about our website: https://eccc.sondage-survey.ca/f/LanguageSelection.aspx?s=442ca660-fcf1-47c0-95a9-59707d6fd709

Hourly Data Report for April 20, 2006

TORONTO CITY
ONTARIO

43°40'00.000" N
79°24'00.000" W
112.50 m
6158355
71508
XTO

Download Data

Hourly Data (April 2006)
Hourly Data Report for April 20, 2006
TIME
LST
Temp Definition
°C
Dew Point Definition
°C
Rel Hum Definition
%
Precip. Amount Definition
mm

Wind Dir Definition
10's deg

Wind Spd Definition
km/h
Visibility Definition
km
Stn Press Definition
kPa
Hmdx Definition


Wind Chill Definition


Weather Definition


00:00 14.7 2.5 44   LegendMM LegendMM   100.07     LegendNANA
01:00 15.1 1.9 41   LegendMM LegendMM   100.08     LegendNANA
02:00 13.9 2.2 45   LegendMM LegendMM   100.09     LegendNANA
03:00 14.1 1.8 43   LegendMM LegendMM   100.12     LegendNANA
04:00 13.6 1.5 44   LegendMM LegendMM   100.13     LegendNANA
05:00 13.3 1.3 44   LegendMM LegendMM   100.15     LegendNANA
06:00 12.8 1.3 45   LegendMM LegendMM   100.23     LegendNANA
07:00 14.7 0.2 37   LegendMM LegendMM   100.31     LegendNANA
08:00 16.6 2.3 38   LegendMM LegendMM   100.27     LegendNANA
09:00 18.4 -3.1 23   LegendMM LegendMM   100.26     LegendNANA
10:00 18.8 -1.9 25   LegendMM LegendMM   100.38     LegendNANA
11:00 19.4 -1.5 24   LegendMM LegendMM   100.37     LegendNANA
12:00 19.3 -1.0 25   LegendMM LegendMM   100.30     LegendNANA
13:00 19.4 -0.3 27   LegendMM LegendMM   100.23     LegendNANA
14:00 18.8 -2.0 24   LegendMM LegendMM   100.22     LegendNANA
15:00 19.2 -2.1 24   LegendMM LegendMM   100.17     LegendNANA
16:00 18.4 0.9 31   LegendMM LegendMM   100.12     LegendNANA
17:00 18.4 -1.7 25   LegendMM LegendMM   100.13     LegendNANA
18:00 19.4 -1.9 24   LegendMM LegendMM   100.11     LegendNANA
19:00 18.8 -1.1 26   LegendMM LegendMM   100.17     LegendNANA
20:00 17.8 -1.8 26   LegendMM LegendMM   100.16     LegendNANA
21:00 17.8 -4.8 21   LegendMM LegendMM   100.16     LegendNANA
22:00 17.3 -6.3 19   LegendMM LegendMM   100.17     LegendNANA
23:00 17.1 -7.1 18   LegendMM LegendMM   100.18     LegendNANA

Notes on Data Quality.

Legend

  • E = Estimated
  • M = Missing
  • NA = Not Available*
  • [empty] = Indicates an unobserved value
Date modified: